Location: Copeville
(33.0796°N, 96.4155°W)
Time: 03:08:45
(UTC+00:00)

Sich 1 - Pass Details

Date: 05 July 2022
Orbit: 593 x 622 km, 82.5° (Epoch: 11 August)

Event Time Altitude Azimuth Distance (km) Brightness Sun altitude
Exits shadow 09:16:51 27° 149° (SSE) 1,175 4.3 -21.5°
Maximum altitude 09:18:48 45° 93° (E) 823 3.9 -21.2°
Drops below altitude 10° 09:22:53 10° 20° (NNE) 1,941 6.6 -20.6°
Sets 09:25:09 0° 14° (NNE) 2,844 7.5 -20.3°
